Location: Central Coast
(33.3208°S, 151.2336°E)
Time: 20:25:48
(UTC+10:00)

Vanguard 2 - Visible Passes

Search period start: 22 April 2018 00:00
Search period end: 02 May 2018 00:00
Orbit: 553 x 2939 km, 32.9° (Epoch: 21 April)

Date Brightness Start Highest point End Pass type
(mag) Time Alt. Az. Time Alt. Az. Time Alt. Az.
22 Apr 11.6 17:47:21 10° W 18:01:18 29° NW 18:13:29 10° N visible
23 Apr 11.8 18:07:13 10° W 18:18:57 22° NW 18:29:27 10° N visible
24 Apr 12.0 18:28:28 10° WNW 18:36:35 15° NW 18:44:07 10° NNW visible
28 Apr 12.3 17:30:42 10° WNW 17:37:29 13° NW 17:44:12 10° NNW visible
01 May 10.1 05:26:39 10° N 05:29:23 15° NE 05:32:40 10° ENE visible
